Theta_e
300 300 300 301 300 299 300 301 302 302 303 304 303 302 304 304 304 303 300 300 302 303 301 299 298 296 295 297 299 301 304 305 305 306 306 307 307 305 305 305 306 309 311 311 310 310 310 310 310 311 311 309 308 309 309 311 313 313 316 316 315 315 315 315 315 313 314 317 316 314 315 315 316 317 316 321 332 340 342 343 344 345 343 343 344 341 342 347
301 301 301 301 300 300 299 299 300 300 301 302 301 300 302 302 303 303 301 301 303 303 302 302 302 298 295 296 296 299 302 304 305 306 307 309 308 306 305 305 305 308 310 311 311 311 311 310 310 311 310 310 309 310 310 312 313 314 317 316 314 315 314 314 315 313 314 316 315 314 315 315 315 317 315 320 333 343 345 347 347 346 346 346 346 344 344 347
301 301 301 301 301 301 301 300 300 300 299 299 298 298 298 299 300 300 301 302 303 303 302 303 303 300 296 296 296 299 302 304 304 306 309 311 310 308 306 304 305 307 309 311 311 311 311 310 310 311 311 311 310 311 312 313 314 315 316 316 314 314 313 313 314 314 315 315 314 313 314 315 315 316 317 316 325 340 347 349 348 348 349 348 346 345 345 347
301 300 300 301 302 302 302 302 301 301 301 300 298 297 297 297 297 297 299 300 301 302 303 303 303 301 297 296 296 299 302 303 304 308 310 310 311 310 308 305 305 308 309 310 311 311 310 309 310 311 311 311 311 312 313 314 315 315 315 317 315 313 313 314 314 315 315 315 313 314 314 315 316 316 317 316 319 331 337 342 346 346 348 348 347 346 345 347
301 300 300 301 302 302 302 302 302 302 302 302 301 300 299 298 297 297 297 297 299 302 303 303 303 302 298 296 296 298 302 305 307 310 310 309 309 310 309 306 305 309 310 310 311 311 310 309 309 310 310 311 312 312 313 314 315 315 315 316 315 313 313 314 315 315 315 315 314 313 314 315 316 316 317 316 317 321 324 329 336 341 346 346 346 346 346 346
300 300 300 301 301 302 302 302 302 302 302 302 302 302 301 300 299 299 299 298 298 301 303 303 303 302 300 297 296 298 302 306 310 311 309 309 308 309 309 307 306 309 310 310 311 310 311 310 308 309 309 310 311 312 313 314 315 316 315 314 316 315 314 315 315 315 315 315 314 313 315 316 315 316 316 316 317 318 318 319 328 338 342 341 342 345 346 345
300 300 301 301 301 301 301 301 302 302 302 301 301 302 302 302 301 300 300 299 298 299 302 302 303 302 301 299 296 298 302 305 308 310 308 308 308 309 309 306 306 308 310 311 310 310 310 310 308 308 309 310 311 311 313 314 314 315 315 313 315 315 314 316 316 316 316 315 315 314 315 316 316 317 317 317 317 318 319 319 330 341 343 342 344 346 345 344
300 301 301 301 301 301 301 301 301 301 302 301 301 301 301 302 302 301 301 300 297 297 299 302 302 302 302 300 298 301 303 303 304 308 308 308 308 308 309 308 306 307 310 311 311 310 310 310 308 308 309 310 311 311 312 313 313 313 314 313 314 315 314 316 316 316 316 315 316 316 315 315 316 316 315 317 317 319 321 326 337 344 346 346 347 346 346 345
301 301 301 301 301 301 301 301 301 301 301 301 300 300 300 301 302 302 301 301 299 296 297 300 302 302 303 301 300 302 303 300 300 304 306 308 308 308 308 310 309 309 310 311 311 310 310 310 309 309 309 310 310 310 311 312 313 313 313 313 313 314 314 315 315 316 316 316 316 316 315 316 317 316 316 317 319 323 327 334 344 347 348 348 347 347 346 346
301 301 301 301 301 301 301 301 301 301 301 301 301 300 299 300 300 301 302 301 300 297 296 299 301 302 303 302 300 301 302 298 299 300 304 306 307 307 308 310 311 311 310 310 311 311 311 310 309 309 309 309 310 310 311 311 313 312 312 312 313 313 314 314 314 314 315 315 315 316 316 317 316 316 318 317 322 330 338 345 348 349 349 347 347 347 347 346
301 301 301 301 301 301 301 301 301 301 301 301 301 301 300 299 299 300 301 302 301 299 296 298 302 302 302 303 301 301 300 299 300 299 301 303 305 307 307 309 310 310 310 310 310 310 310 310 309 308 308 309 310 310 310 311 312 312 312 312 312 312 312 313 313 313 314 315 315 316 316 316 315 316 317 317 329 338 344 347 349 349 348 347 347 347 346 346
301 301 301 301 301 301 301 301 301 301 301 301 300 300 299 299 299 298 301 302 302 301 297 297 301 302 302 302 302 302 300 300 300 299 299 300 303 305 307 308 308 309 309 310 310 309 309 309 309 308 309 309 309 310 311 310 311 311 312 312 312 313 312 312 312 312 313 314 316 315 315 315 314 318 316 318 335 344 345 347 349 347 347 346 346 346 344 345
301 301 301 301 301 301 301 301 301 300 300 300 298 296 297 297 298 298 299 301 301 301 299 296 298 301 301 302 303 300 299 299 299 299 299 299 301 305 306 307 308 308 309 309 310 310 309 309 308 308 308 309 309 310 311 310 310 311 311 312 313 313 313 312 311 312 313 312 315 315 314 317 317 317 315 322 338 347 347 347 347 346 345 344 346 344 344 345
300 300 301 301 301 301 301 301 300 299 300 298 295 293 294 294 296 297 298 301 301 300 300 297 298 301 302 302 300 297 299 298 299 299 299 299 300 304 306 307 308 308 308 309 310 310 309 309 308 307 307 307 308 309 309 309 310 311 312 312 313 313 315 315 311 312 313 312 314 315 314 316 319 318 314 323 338 347 346 345 344 344 344 343 345 345 344 345
300 300 300 300 301 301 301 300 299 299 300 296 293 293 293 293 295 297 298 299 299 299 300 298 298 300 301 300 298 299 300 299 300 300 301 301 299 302 306 307 308 308 308 309 309 310 309 309 308 307 306 307 308 308 309 309 311 311 312 313 312 313 316 316 312 312 314 313 314 315 315 316 319 320 314 318 335 347 345 344 343 343 344 344 345 344 344 345
300 299 300 300 300 300 300 300 299 300 300 296 293 294 294 294 294 296 297 298 298 299 300 298 298 299 300 301 299 300 300 300 301 302 303 303 301 302 304 306 307 308 308 308 309 309 309 308 308 308 307 308 308 308 309 310 311 311 312 315 313 312 313 315 313 312 312 313 314 314 317 319 318 319 316 318 336 347 344 343 342 342 344 344 344 344 344 345
300 300 300 300 300 300 300 301 299 300 300 296 294 296 295 295 295 295 296 297 297 299 299 297 298 300 301 301 300 300 300 301 302 303 303 303 303 302 303 305 306 307 308 308 309 308 309 308 308 309 308 309 309 309 310 310 312 312 311 314 314 313 312 313 314 313 311 313 314 313 317 319 321 327 323 323 338 344 344 343 342 342 343 343 343 342 344 345
300 300 300 299 300 300 300 300 299 300 299 295 296 298 297 297 296 295 295 296 297 299 299 298 298 299 300 299 300 300 300 301 302 302 302 304 305 303 303 304 305 307 308 308 309 308 309 308 309 311 309 309 309 308 310 310 311 312 313 313 313 313 312 312 314 314 313 313 313 313 316 315 324 339 332 330 340 342 343 343 341 342 341 341 341 341 343 344
301 301 300 300 300 300 301 300 299 299 297 296 299 299 298 298 298 298 298 298 298 299 299 299 299 299 298 298 299 299 299 300 300 300 301 304 305 304 304 305 306 307 308 308 308 308 308 308 309 310 309 309 308 308 309 310 311 312 314 315 313 312 313 313 313 315 314 314 314 314 317 315 325 348 339 331 339 341 342 343 341 342 340 339 339 340 342 343
301 301 300 300 299 300 301 300 299 299 296 298 300 299 300 300 299 300 300 300 300 300 299 299 300 299 298 298 298 299 300 299 300 300 300 303 305 304 304 306 307 308 308 308 308 307 308 309 309 309 309 309 309 308 309 310 310 311 312 313 313 312 313 313 314 316 314 315 317 315 318 316 326 351 341 330 338 340 342 343 341 341 339 338 338 339 341 343
301 301 301 300 300 300 300 300 299 298 297 299 299 299 301 300 299 300 300 300 300 300 299 299 300 299 299 299 299 300 300 300 300 300 300 302 304 305 306 307 308 309 308 307 308 308 308 309 309 308 310 310 309 310 310 310 309 309 311 311 312 311 312 313 313 315 314 314 316 316 318 314 324 344 338 331 337 340 341 342 341 341 339 338 338 337 340 342
301 301 301 301 300 300 300 299 299 298 298 299 299 299 301 300 300 300 300 300 300 300 300 299 300 299 299 299 299 300 300 301 301 300 301 303 304 306 307 307 308 308 307 307 308 309 308 309 309 309 312 312 310 310 310 310 310 309 310 310 312 313 312 312 313 314 313 314 317 316 315 315 327 339 336 333 335 337 339 340 340 340 339 339 338 337 340 340
301 301 301 301 301 301 300 300 299 298 298 299 298 300 301 300 301 301 300 301 301 300 300 300 300 300 299 299 298 299 301 302 301 301 301 303 305 306 307 307 308 308 307 307 308 309 309 309 309 310 312 312 310 309 310 310 310 310 310 310 312 313 312 313 314 314 312 315 318 318 316 324 336 339 336 333 333 334 337 339 339 339 339 339 339 340 342 339
301 301 301 301 301 301 301 300 299 298 299 300 300 300 300 300 301 301 301 301 301 300 300 300 300 300 300 299 299 299 300 301 302 302 302 303 305 306 307 307 307 307 307 307 307 308 309 309 308 309 311 312 310 309 309 310 310 310 310 310 311 311 312 314 314 315 317 317 317 317 316 323 337 343 341 336 334 334 334 336 338 338 339 339 338 340 339 339
301 301 301 301 301 301 301 300 299 298 299 300 300 300 300 300 301 301 301 301 300 300 300 300 300 301 301 300 300 300 301 302 302 302 302 304 305 305 307 308 307 307 307 306 306 307 308 308 308 309 311 311 310 309 308 309 310 310 310 310 310 311 312 312 313 318 321 319 316 315 312 317 333 341 343 339 336 336 334 334 336 336 337 338 338 338 336 337
301 301 301 301 301 301 301 300 299 298 299 301 300 300 300 300 301 300 300 300 300 300 301 301 301 301 301 300 300 300 302 302 302 302 303 303 304 305 307 307 307 307 307 306 306 307 307 307 308 310 310 310 311 310 308 309 310 310 311 310 310 311 312 311 312 316 319 317 315 313 313 319 333 338 340 340 338 337 335 334 335 335 336 336 336 337 335 336
300 300 300 301 300 301 301 301 300 298 300 301 300 300 300 301 301 300 300 300 301 302 302 302 300 300 301 301 300 301 303 303 301 302 303 303 304 305 306 307 307 307 307 307 307 307 308 308 308 309 309 310 310 311 309 309 309 310 312 311 310 311 311 311 311 314 317 317 315 315 314 317 330 339 339 339 338 337 336 335 335 335 335 336 336 336 335 336
300 299 299 300 300 301 301 301 300 299 300 301 300 300 300 301 301 301 300 300 302 303 303 303 301 301 301 301 301 302 303 303 302 302 302 303 304 305 306 307 306 306 307 306 307 308 308 308 308 308 309 309 310 311 310 308 309 311 312 312 311 310 310 312 312 313 316 315 313 318 317 315 329 339 337 338 339 338 338 336 336 336 334 335 336 336 336 336
300 299 299 300 301 301 301 301 300 299 300 301 301 300 301 301 301 300 300 301 303 304 304 303 303 302 303 302 302 302 302 302 303 304 302 303 304 305 306 306 306 306 306 306 308 308 308 308 308 308 309 309 310 311 310 309 309 310 311 313 312 311 312 313 313 313 314 314 313 316 316 315 328 340 339 340 341 339 338 336 335 335 335 335 335 336 336 336
300 300 300 300 301 302 301 301 300 299 300 301 301 301 301 301 301 301 300 301 301 303 304 304 303 304 303 303 303 303 302 302 303 303 303 304 304 304 306 307 306 306 306 306 307 308 308 309 309 308 309 309 311 311 309 309 310 310 311 311 310 313 314 313 317 315 312 316 317 314 316 316 323 337 341 341 342 340 337 337 334 334 335 334 335 335 335 336
300 300 301 301 302 302 301 300 299 299 301 301 301 301 301 301 301 301 301 301 301 303 304 304 303 304 304 304 304 304 303 302 303 303 304 305 304 304 306 308 307 307 307 306 306 307 307 309 309 309 309 310 311 310 309 309 310 310 311 310 311 316 315 311 315 315 312 317 319 315 316 316 317 332 341 338 339 340 337 337 335 333 334 334 334 335 335 335
300 301 301 302 303 303 302 300 299 300 301 301 301 301 301 301 300 301 302 302 303 304 304 303 303 304 305 305 305 304 303 302 303 303 303 305 306 305 306 308 308 307 307 306 306 307 307 308 309 310 310 310 310 311 310 310 310 310 312 312 312 315 314 311 313 317 317 318 320 319 316 314 317 327 338 337 337 339 337 336 334 333 334 334 334 334 334 335
301 301 302 303 303 304 302 300 299 300 301 300 301 301 301 301 302 301 302 303 304 304 304 304 304 304 304 305 305 305 303 303 302 303 303 304 307 306 306 308 308 308 309 308 307 307 307 308 309 310 311 310 310 310 310 310 309 308 311 312 312 313 312 312 314 317 319 318 319 320 315 315 318 320 327 334 336 336 335 334 334 333 334 334 334 334 334 334
301 301 302 303 303 304 303 300 299 300 301 301 301 300 300 301 302 303 303 304 304 304 304 305 305 304 304 304 305 305 304 303 302 303 303 304 307 308 307 307 307 308 311 310 307 308 309 310 310 309 310 310 310 310 311 312 310 308 311 312 313 316 317 317 318 317 317 318 318 315 315 319 318 318 326 330 332 334 334 334 334 333 334 335 335 334 334 334
301 302 303 303 304 304 303 301 300 300 301 301 301 300 300 301 302 303 304 304 304 304 304 304 304 304 305 305 305 306 305 304 303 302 303 303 306 308 308 307 307 307 309 309 308 308 308 310 311 309 310 310 310 310 310 312 311 309 311 312 312 317 320 319 321 324 321 318 317 316 319 324 321 324 331 332 334 336 334 334 334 334 334 334 334 334 334 334
302 303 304 304 304 305 303 301 300 301 301 301 301 300 300 301 302 303 304 304 304 304 304 304 305 305 305 306 306 306 305 305 304 303 303 303 304 307 307 307 308 306 308 311 311 310 309 312 313 309 310 310 309 311 310 312 314 311 310 312 312 315 317 315 316 322 321 315 320 320 318 321 320 324 334 337 340 339 335 335 334 333 335 334 334 335 334 334
303 303 304 304 304 304 303 301 300 301 301 301 301 301 300 300 302 302 304 304 304 303 304 305 306 305 306 307 306 305 305 305 304 302 304 305 306 306 305 307 308 306 308 310 311 313 313 314 315 310 310 310 309 311 310 311 314 312 310 311 312 311 317 321 320 321 320 317 322 321 314 317 319 324 336 339 340 338 336 336 334 333 335 334 334 334 334 334
303 304 305 305 304 304 304 302 301 301 301 301 302 302 301 301 302 303 304 305 303 304 305 306 306 305 306 307 307 306 304 304 304 303 303 305 307 307 305 307 308 307 307 306 308 313 313 313 314 311 310 311 309 310 311 310 311 312 312 311 314 315 317 321 321 320 320 317 318 318 316 319 321 328 342 343 338 337 336 335 335 334 334 334 333 334 334 334
303 304 305 305 304 304 304 303 301 301 302 302 303 303 302 302 303 303 304 304 304 304 305 306 306 305 305 306 307 308 305 304 304 303 304 306 308 309 306 307 308 307 307 306 308 312 313 314 314 311 311 311 309 310 311 310 310 311 312 310 313 319 319 317 318 320 320 320 322 320 317 321 325 334 348 347 336 335 336 335 335 334 333 334 333 333 334 334
303 303 304 305 304 304 304 303 302 302 302 303 303 303 302 302 303 303 304 304 304 305 305 305 306 306 306 306 307 308 308 307 305 304 305 306 307 309 307 307 308 307 307 307 308 310 311 314 314 310 311 311 310 311 310 311 311 310 311 311 311 313 315 316 317 317 318 323 327 323 319 328 336 337 345 346 335 333 335 334 334 333 333 334 333 333 333 333
302 303 304 304 304 304 304 303 302 302 302 303 303 303 303 303 304 304 305 305 304 304 305 305 305 306 306 306 307 307 309 312 309 305 306 306 306 308 307 307 307 307 307 308 308 309 311 316 320 315 310 310 311 311 311 311 311 310 312 314 314 312 315 317 315 315 320 324 326 324 324 333 337 331 335 339 334 333 335 333 333 333 332 333 333 333 333 333
302 304 304 304 304 304 303 302 302 302 303 303 303 303 304 304 305 305 305 306 305 305 305 305 305 306 306 306 307 307 310 313 311 307 307 307 307 309 308 308 307 307 309 308 308 310 311 314 319 316 311 311 312 312 313 312 311 312 312 314 315 315 318 320 321 321 319 317 320 321 322 333 338 332 331 334 332 333 333 332 333 332 332 333 332 333 333 333
302 303 304 304 303 303 303 303 303 303 303 304 304 304 304 305 305 305 305 306 306 305 305 305 305 306 306 306 307 308 309 312 312 309 309 308 308 307 307 307 307 307 309 309 309 310 311 312 313 314 312 312 312 311 312 311 311 311 312 312 312 316 321 329 336 331 318 316 319 315 317 334 344 336 332 332 330 332 332 332 332 331 332 333 332 333 334 333
302 303 304 304 303 303 303 304 304 304 304 304 304 304 304 304 304 304 304 305 306 306 306 306 306 306 306 306 307 308 309 311 312 311 311 311 310 308 307 306 307 308 308 310 312 310 313 317 314 313 313 312 312 312 310 310 312 315 318 314 311 317 320 324 329 323 316 320 322 318 320 332 338 333 330 330 332 334 332 331 333 331 331 333 332 333 333 333
303 304 303 303 304 303 303 303 303 303 303 303 303 303 304 304 304 304 304 305 306 306 307 308 307 307 307 307 308 309 309 310 311 312 312 312 311 309 307 306 307 308 307 310 313 311 316 320 317 316 317 314 314 314 312 313 312 316 320 314 311 315 315 318 322 317 317 320 319 322 330 333 337 337 333 332 335 337 334 331 332 332 331 332 332 333 333 334
303 304 303 303 304 303 302 302 301 302 303 303 303 304 304 304 304 304 304 305 305 305 306 308 307 308 308 308 309 310 310 310 310 311 312 312 313 311 307 306 307 307 308 311 312 313 317 319 320 322 319 316 318 315 313 315 314 314 315 312 312 315 315 321 323 319 324 323 319 329 337 334 339 341 336 335 336 337 336 334 331 331 332 331 332 333 333 333
303 304 303 302 303 303 302 301 301 301 302 303 303 304 304 304 304 304 305 306 306 306 307 307 308 309 310 309 310 310 310 310 310 311 311 312 314 313 309 307 306 308 311 312 312 313 314 316 321 323 317 317 322 317 313 314 315 315 316 314 315 318 318 319 321 324 326 321 322 336 338 332 338 342 337 336 337 335 336 333 331 332 332 331 332 333 332 333
302 302 302 302 303 303 303 302 301 301 302 302 302 303 304 304 304 305 306 306 306 306 308 308 308 309 309 309 310 310 311 313 312 313 314 314 314 316 313 307 306 309 311 312 314 316 315 317 321 319 315 317 320 316 314 315 315 316 320 318 316 320 320 316 323 333 326 316 326 338 334 335 344 344 336 333 333 334 333 332 332 332 332 332 332 332 333 334
300 301 301 301 302 302 302 303 302 302 303 303 303 303 304 304 305 306 305 305 307 307 307 308 309 309 308 308 308 310 314 316 313 314 316 315 315 317 315 310 310 311 311 313 317 318 318 322 323 319 319 321 321 317 314 314 314 314 319 323 321 323 324 320 329 335 323 320 335 338 333 338 340 337 334 331 329 331 331 331 333 333 333 333 333 333 333 334
299 299 300 300 300 301 302 303 303 303 304 304 305 305 305 305 307 307 306 307 309 309 307 308 311 311 311 311 310 312 316 316 314 315 315 315 316 317 318 317 315 312 312 316 319 316 316 323 327 327 326 322 322 322 316 314 317 315 318 325 325 323 320 318 325 327 319 322 335 333 331 337 335 331 333 330 328 331 332 332 334 333 334 334 333 334 334 334
299 299 300 299 300 302 303 303 303 304 305 305 305 306 306 306 307 309 309 307 308 310 309 310 313 313 313 315 315 315 316 315 315 315 314 315 317 317 319 320 316 312 316 320 319 316 317 320 324 330 328 319 321 325 319 318 320 315 315 322 325 324 320 317 322 326 323 327 332 329 330 337 337 333 333 331 330 333 332 331 333 334 335 334 334 335 335 335
299 300 300 300 301 302 303 303 303 306 307 305 305 305 306 307 308 310 312 309 307 309 310 312 314 314 315 318 317 315 315 314 315 315 314 315 315 315 317 317 315 316 320 323 319 316 319 319 317 325 326 317 319 324 321 319 318 315 320 326 325 325 322 318 319 322 325 330 333 330 330 335 338 335 337 337 336 335 332 331 333 334 335 335 335 335 335 335
Wind_Speed
14 14 14 15 16 15 14 14 15 15 16 17 17 17 15 16 19 19 18 17 17 16 17 18 19 20 20 20 21 20 20 21 20 17 18 19 17 17 17 15 14 16 17 18 19 20 20 21 20 18 16 14 12 13 16 16 13 9 4 3 5 4 6 6 8 7 5 4 6 6 3 2 6 13 15 8 4 10 13 6 8 14 6 4 11 13 23 28
17 16 16 16 16 16 15 15 15 15 16 17 18 18 17 15 17 19 19 17 18 17 17 18 18 19 19 19 19 19 20 20 21 18 15 14 13 15 18 19 18 18 19 20 18 17 18 18 17 15 14 12 10 12 14 15 15 9 3 4 7 5 6 6 7 7 5 6 5 3 4 5 7 12 16 7 3 9 8 3 6 9 6 8 12 18 26 29
17 17 16 16 17 17 16 15 16 16 17 17 18 18 18 18 17 19 19 17 17 18 18 18 19 19 19 18 17 17 18 20 21 15 8 7 8 14 19 20 20 20 21 21 18 16 16 14 12 11 13 13 11 13 13 13 14 10 5 4 8 6 4 7 9 12 11 8 5 5 6 9 13 15 14 5 3 4 6 5 7 11 16 19 20 25 29 31
18 18 17 16 16 15 15 16 16 17 17 17 17 17 17 18 18 19 19 18 18 17 18 18 19 19 19 18 16 14 16 18 15 8 7 6 7 11 17 20 20 22 23 22 18 16 15 12 10 9 10 10 12 13 11 13 12 8 9 5 5 7 4 11 15 16 16 13 11 10 6 9 16 17 14 6 2 3 8 12 13 16 24 27 28 31 31 33
17 18 18 16 15 15 15 16 16 18 18 18 18 18 17 17 18 18 19 20 18 16 17 18 19 19 19 17 14 12 10 9 4 12 10 6 6 6 13 19 21 23 24 21 19 17 13 11 10 8 7 6 9 9 8 17 14 4 8 8 6 7 5 12 18 17 18 17 16 11 4 8 15 14 14 10 6 4 6 11 13 19 26 27 29 33 34 35
15 17 17 17 16 16 16 16 16 17 18 19 19 20 19 18 18 17 18 18 17 16 15 16 18 19 19 17 14 10 6 3 7 14 9 5 4 3 8 16 22 23 21 21 20 18 13 11 10 7 4 4 6 6 7 19 18 5 4 7 10 11 6 8 14 17 19 17 16 9 3 8 10 11 14 9 8 7 8 9 10 18 23 24 28 34 35 32
14 16 17 17 16 16 17 17 17 18 19 19 19 20 20 19 19 18 17 17 17 15 13 14 16 17 19 18 14 9 11 14 10 11 5 5 5 5 6 14 23 23 21 21 22 20 15 11 11 9 4 3 5 6 10 14 14 8 4 3 9 13 11 11 13 15 18 18 20 13 5 7 7 9 11 12 17 15 11 8 8 20 25 28 31 32 31 27
15 16 16 17 17 17 18 18 18 18 20 20 20 20 20 20 20 19 18 17 17 16 13 12 14 15 18 19 14 9 15 20 13 8 5 2 3 4 6 12 21 22 20 20 21 20 15 11 12 11 4 5 5 4 10 11 8 7 6 4 6 11 13 15 16 17 18 17 21 17 8 10 14 14 10 18 26 16 7 4 11 25 29 29 31 30 30 28
16 17 17 18 18 18 18 19 19 19 20 21 22 21 20 20 21 20 19 18 17 16 13 11 12 13 16 17 13 9 18 21 15 14 11 5 3 1 3 8 15 18 19 18 19 18 15 12 15 14 6 7 8 5 5 6 5 6 9 9 8 10 13 14 15 18 19 17 17 13 8 14 21 14 8 20 22 8 2 7 18 28 30 29 31 32 34 33
17 17 18 18 18 19 19 19 19 20 21 21 22 22 21 21 21 20 20 18 16 16 13 10 10 12 15 15 9 7 16 18 16 19 17 13 12 7 3 4 8 12 16 17 17 18 18 17 17 16 9 7 7 7 5 5 5 7 10 13 13 13 16 16 15 18 18 16 15 9 6 15 19 7 5 14 8 8 12 18 25 30 31 30 33 35 36 36
17 18 19 19 19 18 18 18 19 20 20 22 23 23 23 22 21 20 19 18 16 15 12 10 9 12 15 14 8 9 14 12 11 15 17 18 19 16 9 6 6 6 9 13 14 16 19 20 16 11 7 6 5 6 6 6 7 10 10 9 11 14 16 17 15 16 13 10 15 12 8 13 10 3 9 12 8 17 20 26 29 33 32 31 35 36 36 35
18 18 19 19 18 18 18 18 19 20 21 23 24 25 24 23 22 21 19 17 16 15 13 10 8 12 14 15 18 16 14 13 13 17 17 18 20 20 15 9 8 6 6 9 12 12 13 17 17 13 8 5 3 3 5 5 6 9 8 5 7 7 10 13 13 14 10 6 13 11 5 9 4 5 13 11 15 23 26 29 30 33 32 33 37 36 35 35
18 19 19 19 19 19 19 19 20 22 24 25 26 25 24 23 22 21 19 17 16 14 13 10 8 12 13 18 26 23 22 23 22 21 17 16 20 22 19 14 11 9 7 8 10 11 8 11 16 20 16 6 2 4 6 9 6 6 4 4 4 4 6 9 10 11 9 9 14 9 3 7 5 10 15 8 21 28 28 29 30 33 31 31 35 35 35 36
19 19 20 20 20 20 20 20 22 26 26 26 24 23 23 22 21 20 18 16 16 14 13 10 8 12 13 22 30 28 26 24 19 16 11 12 20 24 22 18 14 11 9 9 9 9 7 6 10 18 20 14 8 8 9 8 4 2 2 3 3 4 5 7 8 8 6 10 15 12 4 8 5 12 15 11 22 29 27 27 30 32 31 31 35 35 36 37
20 20 20 21 21 21 21 22 24 27 27 25 23 23 22 20 18 17 16 16 15 13 13 11 10 11 14 24 30 21 15 14 12 11 10 9 16 24 24 20 17 15 13 12 10 9 9 7 10 14 12 13 12 7 5 3 3 1 4 3 3 5 5 7 7 9 8 8 14 14 4 6 5 11 12 9 20 28 27 26 28 30 31 32 35 36 36 36
21 21 21 21 21 22 23 23 25 26 27 27 24 23 20 17 15 15 15 16 15 13 13 11 9 8 9 15 17 10 10 11 11 9 8 8 10 20 22 21 20 17 15 14 10 8 9 8 10 13 9 6 7 3 1 3 3 2 3 3 3 5 3 5 6 9 12 7 8 11 5 2 5 12 10 7 21 29 27 26 27 29 31 33 35 35 36 36
22 21 21 21 21 22 23 22 23 24 27 27 23 21 18 13 12 13 14 15 15 13 12 10 5 5 12 15 14 14 13 10 9 9 7 8 9 15 17 18 18 16 16 15 13 10 10 10 8 9 9 6 4 5 3 5 5 3 1 3 2 4 5 4 5 5 11 8 6 7 6 4 6 8 5 12 25 29 27 26 27 28 29 32 33 34 37 37
22 22 22 22 21 22 23 22 23 23 26 25 20 20 16 10 8 10 11 13 13 10 9 9 5 3 12 18 18 17 12 8 10 11 9 9 8 11 12 15 14 13 13 12 13 13 10 10 7 4 5 6 5 7 7 6 6 3 3 4 3 3 5 7 5 4 7 7 6 6 6 7 7 7 1 15 28 29 28 30 30 29 29 30 31 34 36 37
23 22 22 22 21 21 22 23 23 23 24 20 18 18 12 8 8 6 6 7 8 5 3 7 12 5 8 15 15 13 14 16 16 15 11 8 7 6 9 11 11 8 6 4 8 12 10 5 6 6 6 9 8 8 7 3 6 7 5 4 4 4 5 6 5 5 5 6 5 7 6 6 7 6 0 12 24 27 28 29 27 26 26 28 29 33 35 37
23 22 23 22 21 20 21 22 22 22 22 17 17 17 11 10 8 3 5 10 12 12 11 11 17 17 19 25 25 20 22 23 20 18 13 6 5 5 10 11 7 6 4 3 4 10 11 5 6 9 8 9 9 8 7 3 4 7 5 3 4 4 4 4 4 7 3 5 4 6 7 7 7 7 3 10 17 18 22 22 20 22 25 27 29 31 34 36
23 22 22 21 20 20 20 21 21 21 18 14 16 16 10 10 6 4 11 16 16 17 21 22 22 25 28 35 34 24 20 21 23 21 14 7 6 7 11 11 6 4 5 3 2 5 10 9 8 7 6 8 8 8 8 7 6 4 4 3 4 4 4 4 4 6 1 3 4 4 6 8 7 6 4 10 12 13 20 20 19 23 24 26 29 30 32 34
24 22 22 22 20 20 20 21 21 20 15 12 15 14 10 10 7 9 13 14 16 17 22 26 26 28 32 38 38 26 16 15 22 22 13 8 10 10 10 10 6 3 5 3 2 3 8 8 6 6 5 7 7 8 9 9 8 5 3 3 3 4 3 4 5 4 0 3 4 3 6 7 4 3 4 8 7 11 26 30 29 31 27 26 29 31 34 34
23 23 22 21 20 20 21 21 21 17 11 12 13 11 11 10 9 12 12 11 16 19 22 24 25 29 33 36 33 22 14 10 14 21 14 8 10 15 12 8 7 5 6 6 6 6 6 6 7 7 6 7 6 8 10 8 6 5 4 3 3 3 2 2 4 4 1 3 2 3 3 5 3 3 2 6 5 7 18 24 28 33 32 32 34 36 38 37
23 23 22 21 21 21 22 22 18 11 10 12 11 8 11 11 11 13 10 8 10 14 17 18 19 25 28 30 23 17 18 16 14 19 15 9 10 14 11 8 8 6 7 9 8 6 4 3 10 9 6 8 6 7 10 7 5 4 4 5 4 3 3 3 3 3 3 2 2 4 2 5 1 3 3 5 3 5 9 12 17 23 27 28 29 33 36 37
24 23 22 22 21 21 23 21 13 8 10 10 7 8 10 11 12 12 7 4 5 8 10 10 11 14 15 16 14 13 15 17 21 22 14 11 12 9 8 10 9 7 9 8 6 5 5 5 12 12 8 8 7 6 9 8 5 4 4 6 6 5 5 3 2 3 5 4 2 3 1 6 3 5 6 3 3 6 6 8 13 17 21 24 27 30 32 34
23 22 22 22 21 21 23 18 11 10 11 7 6 9 9 11 12 9 3 2 4 4 3 3 5 4 6 7 15 12 7 11 23 27 17 14 13 7 7 9 7 8 8 6 3 3 4 7 9 12 10 9 8 6 7 9 6 4 5 8 8 6 5 3 0 2 3 2 4 3 5 5 4 4 6 4 4 5 5 7 11 15 20 25 28 30 32 35
23 21 22 22 20 19 19 17 15 13 9 5 6 8 8 10 11 7 2 2 3 1 1 3 3 2 7 7 17 12 3 5 12 23 22 18 13 8 6 6 5 6 7 6 3 3 7 9 9 11 12 9 9 6 6 9 7 3 5 9 9 8 6 4 3 1 2 2 4 1 4 2 4 5 4 4 4 4 6 9 10 13 18 23 28 31 35 39
24 23 24 23 20 17 17 18 18 13 6 4 5 6 7 9 8 4 2 2 1 1 1 4 3 5 10 7 19 17 6 4 1 13 23 21 14 8 4 4 5 5 7 8 5 3 8 12 9 11 12 8 7 6 7 10 6 4 6 8 9 8 7 5 4 3 2 1 5 4 3 2 5 4 2 5 5 6 10 12 12 14 19 23 27 30 34 37
24 25 25 23 20 18 16 18 17 9 3 2 4 5 6 8 5 2 0 3 1 2 2 3 2 7 7 7 18 18 11 6 3 6 19 21 16 9 2 3 5 5 8 9 5 3 6 13 11 9 9 7 6 5 7 10 5 4 6 6 4 4 5 5 5 4 1 1 6 6 3 3 4 3 4 4 6 9 10 10 11 15 19 24 27 29 32 34
24 25 23 21 20 18 15 16 13 5 3 1 3 5 7 5 2 1 1 2 0 1 1 2 4 6 2 4 8 11 9 8 7 2 13 16 16 14 5 3 4 3 6 7 6 6 4 12 13 7 7 7 8 5 6 10 7 5 6 3 1 2 1 3 3 3 2 2 8 7 6 5 4 4 5 6 10 13 11 8 10 15 19 25 29 30 32 33
24 23 19 18 17 15 14 12 6 6 6 2 2 4 5 3 1 1 2 2 1 2 1 2 4 4 1 2 3 6 5 6 7 2 6 8 10 12 5 3 3 2 3 5 7 9 7 8 9 6 9 10 8 6 5 8 7 6 5 4 1 4 2 1 2 2 3 5 7 6 7 6 5 5 6 12 14 10 11 13 15 17 21 26 29 30 32 32
23 21 16 15 15 13 11 6 3 7 6 3 2 3 1 2 0 3 2 3 2 2 0 1 3 2 1 2 3 5 3 3 4 2 3 3 6 7 5 4 3 4 6 7 7 8 7 5 4 6 13 14 10 6 5 5 6 6 5 6 4 2 1 2 2 1 4 6 6 4 5 4 6 7 9 16 16 10 12 17 20 22 25 29 29 30 30 30
23 20 16 13 13 12 8 4 8 8 5 4 1 2 2 2 2 4 2 2 2 1 1 2 3 2 3 4 3 4 3 1 3 3 3 2 5 5 5 4 3 2 5 6 7 7 4 4 4 7 10 14 13 8 7 6 6 7 6 6 6 4 3 4 3 1 2 5 7 4 3 2 5 5 8 14 18 18 17 18 23 25 27 29 29 29 29 29
23 21 17 13 11 10 6 7 11 10 6 4 2 2 2 0 4 2 1 2 2 2 2 2 4 5 5 5 3 3 3 2 3 5 3 3 4 5 5 6 6 1 3 6 5 6 6 4 7 8 6 12 14 9 8 5 6 7 4 6 5 4 5 4 2 3 3 4 5 2 3 4 4 3 7 9 10 12 13 14 18 20 21 24 25 26 27 28
25 19 15 12 8 7 6 9 13 11 8 6 3 2 1 3 3 2 2 2 2 4 4 5 7 6 4 5 4 3 2 3 5 5 3 3 4 4 5 5 7 3 3 6 4 4 7 5 6 9 6 12 13 8 8 8 5 5 4 6 5 5 5 1 3 6 5 3 4 2 3 4 4 3 7 2 3 8 13 15 18 19 20 22 24 26 27 28
24 15 9 8 4 4 6 11 14 11 10 7 3 1 3 3 3 2 1 1 2 4 6 7 5 3 2 2 2 3 3 2 5 5 2 3 4 4 4 3 5 5 4 5 3 4 6 4 4 10 8 10 14 10 9 8 5 4 4 5 5 5 5 1 2 1 3 4 4 2 2 4 2 3 7 5 5 7 10 13 17 20 22 23 24 27 28 30
23 13 5 4 4 2 7 12 13 11 10 6 2 2 4 3 4 4 2 2 2 2 5 5 1 1 1 1 1 3 3 1 5 5 2 2 3 3 4 3 5 8 6 5 2 3 6 3 5 12 10 10 17 17 8 7 8 5 6 7 3 3 2 1 2 1 3 4 4 1 3 3 1 2 5 5 4 6 8 10 13 16 22 23 24 28 30 32
20 11 4 3 5 5 7 13 13 12 10 4 4 5 4 3 5 4 4 3 1 3 4 2 1 0 1 1 1 3 5 3 4 5 3 2 2 4 6 4 5 9 8 6 2 2 4 2 5 10 11 7 12 14 7 7 8 6 6 8 5 4 2 1 2 2 2 3 3 1 1 2 3 4 3 2 7 9 8 9 10 13 19 22 24 28 31 31
14 7 4 4 7 7 5 13 14 12 8 3 3 5 3 4 7 9 9 5 2 4 4 2 2 1 1 1 2 1 4 4 4 4 3 2 2 4 7 5 4 7 8 8 4 3 0 3 1 7 11 5 5 8 7 8 7 4 5 6 4 4 4 3 2 3 3 3 3 1 2 2 5 6 7 10 10 10 11 11 12 14 21 25 26 29 31 30
13 5 3 6 9 8 4 12 13 10 5 2 3 4 3 5 7 11 13 8 3 4 3 2 2 1 1 2 1 1 1 2 3 4 2 3 3 3 5 7 4 4 8 9 6 1 1 2 2 5 8 6 4 7 9 10 8 5 5 5 4 3 3 2 1 2 3 3 3 3 2 5 6 4 9 12 11 12 14 14 13 16 23 27 28 31 32 31
13 3 4 9 12 8 3 9 7 4 3 3 4 4 5 6 6 9 13 12 9 7 6 5 4 3 2 2 1 2 0 1 1 3 2 4 4 3 4 10 6 2 6 6 5 3 1 1 2 5 6 6 6 6 8 10 9 7 6 5 5 5 4 3 2 1 2 3 4 4 3 6 6 3 6 9 11 13 15 14 12 16 25 28 29 32 33 34
10 3 5 9 10 6 3 5 3 2 3 4 5 5 8 9 6 7 9 10 9 7 7 6 5 4 3 1 2 2 1 1 1 3 2 4 5 4 5 12 12 5 4 4 4 3 3 1 1 3 5 6 5 5 8 10 9 7 5 5 5 5 5 5 5 3 1 2 2 4 3 6 6 3 4 6 8 12 16 15 11 15 24 28 29 31 33 34
10 8 7 6 6 4 2 3 2 3 4 6 7 9 12 9 5 6 7 5 6 5 4 4 4 4 3 2 3 2 1 1 1 3 3 3 5 8 10 14 14 7 3 2 3 4 3 1 1 1 1 1 1 2 6 9 8 5 4 5 5 5 5 5 5 4 4 3 2 4 2 6 6 4 4 4 6 7 11 12 10 14 21 25 28 31 33 34
13 11 6 6 6 5 2 2 3 3 4 8 9 10 12 9 6 8 6 3 4 2 2 3 3 4 4 3 2 2 1 0 2 3 3 2 3 10 15 15 13 8 6 5 4 7 6 2 1 2 3 4 3 3 4 6 7 5 3 4 6 7 6 4 2 2 3 4 4 5 4 7 5 5 4 4 6 4 5 8 12 16 20 24 29 31 33 33
13 7 4 8 7 6 4 3 3 4 5 8 9 9 9 6 6 9 8 6 5 4 3 3 2 2 2 2 2 3 4 3 2 2 3 2 2 7 13 17 16 11 12 12 6 6 6 3 3 4 5 7 6 4 5 6 5 4 4 6 7 9 9 5 2 3 2 4 4 6 4 6 6 6 3 5 8 6 7 10 14 18 21 25 28 31 33 33
8 3 4 8 6 6 8 7 5 4 4 6 7 6 5 3 4 6 7 6 6 6 5 4 3 2 1 1 0 2 4 5 6 3 2 3 3 4 10 20 20 15 18 22 14 3 2 2 3 5 6 7 6 5 3 5 6 4 6 7 5 7 9 6 4 4 4 3 2 5 5 4 6 6 1 5 7 8 8 11 16 20 22 24 26 29 32 32
5 2 3 7 5 5 6 6 4 3 4 5 3 3 4 4 4 4 3 3 3 3 3 3 3 1 2 2 1 2 3 5 7 5 4 4 4 5 8 17 19 19 22 21 15 4 2 4 4 5 8 8 6 6 5 8 8 6 8 8 4 5 8 7 5 5 5 5 3 7 5 4 7 6 6 8 9 9 8 10 16 22 24 24 25 26 27 27
6 3 5 7 5 3 3 6 7 6 8 7 2 2 5 5 4 2 2 3 4 2 1 1 2 3 3 2 1 2 4 2 3 1 3 3 4 6 3 10 12 17 18 11 7 4 0 5 5 4 6 7 5 7 8 9 8 8 9 8 5 7 9 8 7 7 7 6 6 6 6 6 8 7 8 9 8 9 11 12 16 21 23 24 25 25 25 24
7 5 8 10 8 8 12 15 14 10 7 5 2 2 4 5 5 3 2 2 4 2 2 1 3 4 6 5 3 2 3 1 2 1 2 3 5 4 1 5 5 9 10 5 4 4 2 5 4 2 3 2 3 7 9 9 9 8 8 8 8 9 9 7 6 6 6 6 5 5 6 6 8 6 6 5 2 6 12 16 18 22 25 25 26 25 24 24
11 8 11 15 13 13 16 15 11 7 4 3 2 3 3 4 7 5 3 4 3 1 3 2 5 5 5 6 6 4 3 3 3 5 4 2 4 3 2 2 2 5 6 3 3 3 3 5 3 2 3 3 4 4 8 9 10 8 6 5 7 9 6 3 2 3 4 3 2 6 4 5 6 3 1 3 8 11 13 15 18 21 24 26 25 25 26 26
13 13 14 13 9 9 10 9 6 5 3 1 2 4 3 4 8 10 4 6 7 4 4 4 5 4 3 3 4 4 4 6 8 10 8 5 4 3 1 1 3 4 3 1 0 1 2 2 2 3 4 2 4 5 7 8 9 8 5 5 8 8 5 3 3 4 5 5 6 7 3 5 5 1 4 5 10 11 10 12 17 20 24 27 27 27 29 30
17 19 17 10 6 6 7 7 6 5 4 2 4 6 7 8 10 10 4 5 9 9 9 8 4 3 2 1 2 5 7 7 12 16 15 13 11 8 7 5 2 3 4 2 1 0 1 1 2 2 4 2 4 4 8 8 8 4 4 7 7 5 4 3 2 3 5 7 7 6 6 5 3 5 4 4 6 6 9 15 20 22 24 25 26 28 31 34
Wind_Direction
333 325 319 313 310 307 303 301 301 302 303 302 301 304 310 316 317 315 314 313 315 318 318 318 314 310 303 297 296 295 295 296 295 284 270 272 275 263 252 240 218 208 212 214 212 213 213 214 217 217 213 212 216 214 206 203 196 190 181 186 201 189 199 187 184 194 173 209 245 244 264 223 267 313 314 303 195 167 157 142 154 181 221 220 207 200 187 186
340 337 331 326 322 317 311 304 301 301 301 303 301 299 298 299 304 310 315 314 316 318 319 320 318 317 312 304 298 296 295 296 299 287 271 280 272 248 239 230 216 207 212 215 214 215 212 212 215 215 213 208 212 206 201 202 198 195 135 182 216 195 201 188 182 197 180 214 240 244 316 320 294 319 325 321 145 156 151 117 149 159 133 154 181 183 184 186
339 338 334 333 331 328 323 316 311 307 304 305 302 301 298 294 293 299 309 314 314 316 318 319 318 319 317 311 304 299 297 301 300 282 257 271 242 230 234 224 211 204 209 215 215 217 215 212 208 206 210 210 210 199 194 196 198 206 176 196 229 199 212 211 206 218 220 239 268 276 302 317 302 312 320 307 149 176 187 163 149 142 136 149 167 177 184 186
335 335 334 334 332 331 330 326 324 320 316 313 308 305 302 298 295 293 300 307 310 316 318 316 315 319 320 315 310 303 305 311 297 234 193 227 224 225 229 221 208 199 203 211 213 215 218 217 205 196 205 213 215 205 199 195 188 200 195 209 222 178 210 228 222 231 237 253 271 275 302 314 303 306 304 280 185 264 237 208 189 166 154 156 167 177 184 186
331 331 332 334 334 334 333 329 327 324 321 321 318 314 309 305 300 297 297 298 305 313 314 312 312 317 319 317 314 304 312 328 247 181 172 196 208 214 220 217 204 196 200 206 210 213 221 225 217 210 210 215 213 208 218 209 197 193 211 216 212 181 203 231 226 235 244 253 264 272 297 293 295 301 300 286 233 239 260 239 216 183 169 166 171 179 184 182
329 330 332 333 334 333 330 326 323 319 317 319 320 318 316 312 306 303 300 296 298 303 309 309 309 314 317 318 313 299 279 268 169 164 166 154 148 148 195 206 196 193 199 202 208 212 220 224 217 213 208 226 221 211 223 216 211 227 242 210 211 210 210 233 225 230 240 244 253 256 244 274 297 308 303 286 250 273 317 297 241 191 177 176 177 179 178 167
332 331 331 332 331 328 325 322 320 317 316 316 315 315 316 315 310 306 303 301 296 295 302 305 307 312 316 317 310 293 260 248 196 160 161 123 112 87 134 180 185 192 199 202 206 207 215 214 204 205 202 239 228 220 230 227 221 225 258 216 218 226 227 242 239 239 239 236 250 252 232 266 286 295 296 285 282 295 317 311 220 180 172 175 172 168 161 149
336 335 332 331 328 326 324 321 319 318 316 314 312 312 313 312 309 306 305 302 299 293 291 298 305 309 314 319 322 310 268 248 215 202 245 137 115 64 107 160 174 188 198 206 211 210 215 207 198 199 197 235 223 223 230 234 238 222 237 256 243 242 242 250 253 257 254 247 258 260 249 258 264 273 286 283 285 294 311 299 181 168 163 162 157 153 151 152
337 335 332 330 328 326 323 321 319 317 315 313 311 309 308 308 305 306 306 302 302 294 288 292 299 305 307 313 326 307 265 251 241 246 250 231 230 25 110 157 170 184 194 208 219 222 222 211 206 200 197 240 239 255 226 212 235 211 220 239 247 251 254 260 258 258 261 261 260 260 268 267 267 272 281 279 280 277 192 165 160 154 149 148 149 156 160 165
337 335 332 330 328 326 323 322 320 318 317 314 311 306 303 302 299 302 303 302 302 296 292 291 294 299 298 305 324 298 271 270 263 253 248 249 256 256 219 163 172 186 195 207 219 229 226 217 213 206 221 254 243 254 232 204 241 228 220 229 237 248 256 260 260 260 262 267 257 241 255 263 265 259 254 274 258 164 150 140 146 146 145 148 154 164 169 172
336 334 332 331 329 327 325 324 323 321 319 314 310 307 303 298 295 295 297 299 300 298 292 287 291 284 287 297 285 264 281 289 275 261 255 254 255 253 238 192 190 200 204 212 215 225 226 224 216 200 224 246 238 271 260 238 256 255 241 237 242 246 256 256 256 260 258 268 257 232 234 261 265 192 241 256 164 147 143 137 145 148 148 154 161 169 172 173
335 333 333 332 330 328 326 325 324 321 317 312 309 307 304 298 293 290 292 294 294 298 292 282 277 272 283 281 258 258 281 291 290 280 267 258 254 251 243 222 220 224 229 229 211 209 223 228 221 206 212 227 229 269 293 296 287 269 251 243 260 254 258 250 247 255 237 247 252 228 239 264 242 199 248 240 153 143 139 139 147 150 153 159 163 167 168 171
334 333 332 330 328 327 325 323 321 319 315 312 309 306 303 297 293 289 288 290 289 293 293 285 269 271 281 268 264 276 289 292 291 285 276 265 254 247 242 233 228 224 237 242 207 195 210 230 227 222 224 227 238 253 303 327 327 292 240 195 247 263 268 245 238 244 222 239 236 200 233 260 252 244 241 187 145 142 136 140 146 152 157 160 163 165 169 176
332 331 330 328 327 326 323 319 316 316 316 317 313 306 301 297 293 287 285 287 286 288 290 285 263 267 268 266 279 293 295 294 289 287 292 269 248 241 237 234 232 222 226 234 211 192 190 212 228 229 235 236 251 288 317 334 325 283 202 179 194 211 265 256 226 210 212 249 215 179 238 251 271 256 227 163 150 145 135 142 148 153 158 161 168 171 175 181
330 329 328 326 326 325 322 317 318 321 321 322 318 311 307 302 295 285 281 282 283 285 285 280 262 264 266 274 288 296 288 290 294 304 319 295 252 238 232 229 230 223 222 227 213 194 186 196 216 219 237 240 238 278 329 337 320 244 183 217 194 186 270 279 235 192 198 244 195 173 236 253 267 249 223 171 159 148 138 148 152 155 161 166 172 175 178 183
328 328 326 323 323 322 320 319 325 328 324 324 323 318 314 308 297 286 277 275 277 274 271 274 264 256 265 282 293 287 278 294 309 314 317 316 270 242 234 229 230 223 223 227 215 205 201 207 218 211 213 224 206 181 346 305 299 288 183 204 191 175 227 275 264 207 194 210 188 184 209 247 260 237 220 170 161 150 144 155 157 161 167 170 175 178 180 184
328 327 324 322 320 319 320 323 330 329 322 323 324 322 321 312 297 282 270 265 267 265 264 267 261 256 258 268 279 280 290 306 305 301 304 315 279 250 244 236 232 228 230 231 224 224 215 205 201 203 205 200 154 139 194 237 234 270 167 182 212 172 182 224 277 240 190 193 206 198 199 212 259 251 202 161 163 152 149 159 163 167 172 174 177 179 182 186
329 327 324 322 319 318 321 325 330 327 320 322 326 327 327 324 305 282 264 258 260 265 268 249 215 285 266 259 267 275 291 298 282 289 307 321 287 250 241 235 233 233 239 238 230 222 207 199 182 164 188 190 182 167 193 213 185 182 160 170 222 197 192 203 233 241 172 179 202 182 198 226 260 302 70 156 162 155 157 165 169 173 175 176 179 181 184 189
329 328 325 323 320 319 321 324 329 328 323 324 330 330 333 342 335 306 274 258 242 236 260 219 194 204 270 261 265 278 288 286 289 295 296 318 314 247 212 221 226 226 236 225 221 208 181 172 177 183 198 193 194 185 193 195 144 165 178 160 178 199 227 213 228 248 157 143 192 175 189 222 238 268 274 155 161 158 163 169 172 175 175 176 179 182 187 192
329 329 328 327 324 322 323 323 327 329 324 324 334 339 351 357 353 350 307 281 257 249 262 248 221 232 262 268 270 284 288 284 288 285 274 296 319 237 196 203 208 208 217 176 197 193 171 178 206 201 202 189 186 174 180 223 161 155 163 176 187 190 250 246 252 271 173 141 217 191 191 220 216 224 194 155 158 156 164 169 172 176 177 180 181 184 189 193
329 329 329 329 328 327 323 321 326 327 320 320 335 343 355 354 342 311 311 296 278 268 265 262 249 247 260 267 271 284 295 290 284 269 251 248 250 218 197 190 179 196 206 198 235 182 173 203 214 199 190 175 173 158 162 213 224 173 157 199 217 195 239 250 241 272 223 155 250 187 185 240 226 202 178 157 156 162 169 169 176 180 182 185 183 185 189 191
328 328 328 329 329 328 323 322 326 323 313 311 326 335 339 337 321 303 305 293 285 281 270 265 258 253 258 264 267 274 283 282 281 268 241 228 224 203 187 178 177 187 169 191 264 192 195 213 192 176 172 148 154 160 165 201 220 217 193 183 226 220 244 273 267 284 106 162 253 190 184 262 261 170 171 177 178 183 180 179 182 183 183 187 187 188 190 191
327 327 326 325 326 326 321 322 325 319 307 307 317 328 330 328 323 312 298 282 289 284 269 261 254 250 252 258 259 258 249 241 271 264 232 207 210 195 185 177 178 170 161 195 207 184 205 206 164 166 165 143 151 170 173 195 212 209 195 177 231 243 186 241 273 293 244 169 186 155 189 287 329 81 167 221 238 205 192 190 187 185 184 188 191 192 193 193
328 326 324 322 322 320 317 320 322 314 308 312 313 317 323 325 326 320 300 271 290 284 272 269 258 251 252 258 255 236 227 223 238 248 228 210 208 194 193 186 168 181 192 198 203 207 245 197 156 162 172 160 159 175 178 188 209 209 192 181 209 238 206 210 272 306 336 355 108 112 348 307 263 142 205 232 218 179 193 194 187 187 189 190 192 195 196 197
328 324 322 320 318 315 314 319 320 308 310 315 316 313 322 333 328 322 309 268 283 277 282 290 257 254 266 261 243 220 223 228 232 240 233 211 205 191 197 189 175 202 197 180 195 219 258 220 163 164 188 180 168 185 185 174 189 224 210 190 193 210 221 236 315 8 31 351 292 141 214 289 265 200 207 202 155 167 180 186 184 187 189 190 194 198 199 198
326 322 319 315 312 314 314 317 316 306 310 317 327 324 325 336 331 324 320 267 287 269 278 309 243 277 326 226 205 204 226 249 245 245 240 214 210 206 196 187 187 207 181 160 201 203 227 227 179 172 186 184 185 203 193 168 164 224 217 191 194 206 211 207 30 59 96 252 272 158 180 260 299 243 219 195 175 176 177 193 193 189 190 192 195 198 198 195
324 320 316 310 307 312 310 309 306 301 304 310 325 328 327 335 333 326 317 250 279 266 259 301 243 329 332 218 184 172 196 285 245 237 229 213 211 219 206 183 180 194 165 156 216 192 183 205 198 184 182 186 199 204 184 164 155 216 202 172 188 209 205 181 129 146 210 248 302 2 156 212 278 255 223 173 178 190 193 202 201 197 197 197 197 198 197 194
325 322 318 313 308 303 297 291 291 289 281 284 317 326 327 334 334 335 331 275 270 93 328 298 248 295 307 225 180 181 223 329 143 218 217 208 205 205 204 201 183 177 173 178 208 181 172 198 202 184 188 196 192 180 157 156 163 214 175 150 178 200 195 173 155 223 255 16 299 298 124 173 269 269 177 154 184 211 209 205 201 199 201 202 201 200 199 197
325 323 320 317 307 300 290 275 275 276 239 250 320 324 323 331 337 16 17 274 263 105 333 322 313 313 307 188 183 203 242 290 356 195 197 201 210 209 222 227 193 176 190 193 208 198 177 199 197 178 197 195 166 166 152 158 183 193 156 131 139 165 177 172 173 203 150 111 251 256 165 178 275 254 173 159 201 219 213 205 202 201 201 202 202 201 202 200
324 323 321 314 307 305 295 277 271 253 189 220 328 321 322 325 341 40 252 266 299 130 300 326 340 335 344 151 195 226 247 269 299 252 179 187 202 212 236 233 181 163 193 189 208 245 219 195 195 189 195 170 157 178 162 168 181 151 151 155 67 27 117 149 136 126 116 238 251 236 180 179 262 251 188 186 211 207 193 188 198 203 203 201 201 200 201 201
326 323 317 307 302 299 293 286 264 198 180 151 359 325 323 335 89 183 242 273 276 246 288 291 305 332 38 116 232 232 230 253 281 282 181 173 181 203 219 200 178 109 158 173 200 247 257 197 192 179 172 159 157 186 182 183 183 148 150 166 200 318 355 69 28 81 168 243 259 231 178 174 226 249 209 215 226 204 180 187 191 197 201 199 199 199 199 199
327 320 311 300 292 289 289 286 192 187 183 136 16 321 339 29 312 220 245 329 300 234 51 268 278 341 329 292 262 222 220 245 239 221 217 170 159 198 204 187 186 140 170 181 180 220 250 236 201 166 173 171 163 177 194 200 189 164 154 149 167 249 265 203 219 179 206 242 258 221 161 178 231 242 216 216 226 211 192 196 191 190 193 194 194 195 196 196
329 319 309 294 285 289 290 235 188 188 171 124 36 317 92 73 260 224 235 296 266 211 188 228 246 285 276 278 269 211 205 238 204 207 250 176 154 202 221 223 235 165 168 168 161 187 229 277 230 186 178 177 173 173 189 202 185 172 169 158 167 173 175 209 223 192 224 250 263 230 167 230 257 260 227 212 219 216 205 201 195 191 189 188 188 189 192 193
331 321 308 293 282 283 270 219 195 182 159 126 84 33 68 279 254 254 265 234 248 277 238 236 267 264 242 238 252 210 189 233 217 198 207 184 167 193 217 226 229 248 107 146 165 180 186 243 219 198 179 174 182 185 171 158 157 170 153 133 154 161 162 193 198 178 202 255 272 217 163 205 202 258 260 228 223 209 192 186 184 185 186 183 183 185 187 188
332 324 307 298 289 271 246 212 195 180 160 143 107 82 167 254 252 268 287 249 287 293 275 287 288 278 245 217 234 243 192 193 208 205 199 184 185 192 202 216 211 206 149 165 181 178 191 243 213 192 186 169 178 187 152 130 143 177 125 121 179 186 154 153 180 173 175 218 260 208 193 221 199 288 318 300 159 151 154 155 156 167 176 176 178 183 185 185
336 336 315 311 311 254 227 204 196 182 163 150 110 152 217 234 239 233 251 233 267 297 302 299 280 259 252 203 215 228 209 173 181 196 222 189 203 203 186 201 197 195 188 164 158 163 184 266 215 183 205 188 174 176 173 163 161 166 154 169 198 173 146 154 229 165 106 169 235 244 220 281 290 314 345 35 108 133 143 147 152 161 168 172 179 183 184 185
340 347 341 350 9 284 218 200 196 184 172 166 167 224 224 234 242 236 230 226 231 273 297 304 287 189 254 230 208 188 179 155 168 184 231 200 218 204 173 195 192 192 203 176 169 166 157 263 240 181 200 212 175 169 188 186 155 140 184 195 158 123 129 109 196 348 58 170 245 280 199 249 221 239 327 23 115 153 155 153 156 159 165 175 183 184 186 187
340 349 7 22 358 317 223 200 196 185 181 192 243 247 236 226 235 231 224 231 241 247 264 277 212 321 347 244 256 182 162 153 157 181 221 209 225 198 170 190 207 201 206 179 183 298 153 196 266 187 189 211 170 165 193 207 174 149 175 182 150 150 203 112 162 183 129 178 234 295 254 234 195 211 265 233 185 177 166 160 161 163 171 180 184 186 188 187
350 355 11 9 347 327 234 203 194 187 191 218 249 248 235 231 249 253 244 233 238 254 255 258 220 218 348 262 267 215 162 162 156 172 205 185 216 216 175 171 222 210 185 160 167 305 159 138 244 197 181 166 149 170 190 202 194 153 151 171 155 153 174 171 169 168 162 184 199 225 321 261 230 213 193 201 199 177 168 173 176 179 182 183 182 185 188 186
3 352 344 353 344 334 239 199 190 190 207 244 240 250 266 259 261 266 257 233 209 244 241 247 241 209 291 282 280 309 145 137 148 166 201 187 197 251 183 168 218 210 161 163 180 255 329 145 177 193 173 155 175 197 190 184 180 168 166 171 163 151 144 155 179 140 140 158 171 174 229 258 255 211 184 196 193 181 182 183 184 187 185 184 182 183 185 185
5 341 315 338 341 334 221 190 192 208 236 259 249 252 276 273 266 274 261 233 219 238 240 252 264 255 292 326 321 293 319 69 126 161 207 206 192 258 206 178 196 190 147 175 202 192 211 196 162 175 179 184 196 195 183 175 167 165 174 176 171 165 135 135 212 247 114 149 172 158 196 262 264 216 202 198 183 187 192 185 185 185 181 182 183 183 183 184
357 323 315 337 344 332 221 193 213 233 234 262 259 256 276 278 269 275 264 235 225 233 235 243 248 239 247 238 228 254 185 142 179 167 197 217 200 226 213 185 187 187 163 190 216 183 162 149 173 193 194 202 203 180 167 162 149 143 167 184 170 153 131 137 188 229 158 156 161 126 170 262 261 229 236 216 189 193 194 187 182 179 179 180 181 181 183 185
339 318 322 337 339 325 260 222 239 223 231 266 273 273 281 281 271 285 283 241 223 226 226 237 240 228 217 205 224 262 35 126 209 195 196 217 213 220 216 192 184 186 185 198 204 183 175 199 254 242 154 148 348 105 140 147 142 144 176 174 159 169 167 152 168 188 175 182 152 114 196 266 276 280 267 216 188 190 194 188 169 164 175 179 178 180 183 185
321 308 319 334 320 303 286 261 265 263 266 280 287 288 287 279 258 270 280 237 212 217 225 228 228 224 214 200 212 264 321 253 261 244 215 213 222 224 222 202 184 184 196 201 178 170 187 208 145 148 128 121 90 77 130 168 172 176 185 162 164 173 161 143 131 127 173 208 163 139 208 253 271 310 312 175 154 145 170 174 164 165 173 178 179 181 184 184
322 303 313 325 302 257 246 254 266 282 291 292 293 292 291 278 242 244 257 261 244 232 245 261 262 249 230 196 192 234 235 221 256 265 221 228 252 239 225 203 191 195 207 217 203 149 175 205 138 147 161 162 169 174 179 181 171 160 144 149 169 168 159 165 149 119 203 227 157 149 208 254 287 330 0 147 147 139 145 154 165 173 176 179 180 181 182 184
335 319 317 325 299 241 250 264 261 263 289 303 299 291 286 278 268 264 266 268 249 230 239 265 277 270 211 169 219 249 237 221 222 237 267 255 255 257 217 194 192 200 208 220 228 166 95 259 181 167 179 178 187 208 189 134 130 141 137 139 161 162 151 140 122 147 188 175 175 214 203 228 286 307 307 174 164 158 158 156 162 172 178 182 181 181 183 184
351 331 329 337 314 260 257 261 241 228 273 294 311 303 286 275 295 302 268 251 268 259 241 239 255 240 166 168 183 233 242 222 208 223 292 266 251 277 218 183 185 200 205 218 232 218 26 290 236 184 188 193 191 190 162 128 136 150 138 137 152 145 132 125 150 192 166 125 265 256 189 184 250 249 219 202 182 170 175 172 168 170 175 179 179 180 181 179
8 321 315 337 324 283 301 293 286 293 290 281 269 283 289 288 298 315 290 301 315 300 229 236 254 245 238 230 170 213 240 217 166 212 311 274 277 307 231 165 179 200 202 214 232 192 210 273 247 179 190 204 184 165 150 133 141 148 143 149 153 144 144 156 192 204 160 154 235 229 167 197 242 234 213 207 194 180 175 168 164 164 167 172 175 175 174 173
3 325 312 332 321 286 292 293 291 300 300 280 263 265 279 295 300 272 211 288 311 256 178 266 255 228 238 232 201 239 264 133 101 262 268 269 289 318 130 151 166 177 177 194 215 169 176 262 254 170 164 165 131 154 147 132 137 148 153 159 156 158 166 172 193 201 170 172 204 168 162 227 250 238 225 221 181 146 149 150 155 161 166 170 171 170 168 169
357 344 319 322 313 288 288 294 297 304 295 272 278 272 258 280 304 307 216 204 276 261 147 215 261 242 244 226 196 211 224 160 184 226 212 252 310 331 84 123 115 123 139 181 206 169 190 242 258 101 98 40 41 117 130 130 140 144 138 131 132 141 148 143 163 179 159 140 109 122 151 263 265 238 154 124 132 134 141 150 157 164 168 168 166 165 166 169
355 348 330 317 307 297 303 309 310 308 308 324 321 315 308 276 296 315 300 200 210 211 183 233 276 278 277 244 185 210 218 190 211 233 228 226 259 281 324 45 72 114 146 179 171 155 204 249 320 65 91 19 7 81 102 106 115 122 129 132 131 131 137 170 207 190 166 143 103 108 149 254 254 171 85 113 142 145 149 154 155 163 171 170 166 166 170 176
351 347 342 324 290 293 313 319 319 317 326 330 312 311 308 293 296 314 319 207 218 233 237 246 275 313 298 262 231 273 284 271 264 268 263 247 238 246 254 261 266 188 174 152 102 186 175 208 297 66 103 356 340 90 105 91 95 129 208 181 153 134 130 155 237 232 174 145 127 150 206 229 189 138 118 126 138 147 166 169 167 170 173 171 169 170 174 183